Flag for U.S.A. Weather past 2 weeks in Aliso Viejo, California, U.S.A.

Now
54 °F

Clear.


Feels Like: 54 °F
Forecast: 48 / 69 °F
Wind: 3 mph from South

Location: John Wayne Airport-Orange County Airport

Current Time: Mar 4, 2015 at 1:28:58 AM

Latest Report: Mar 4, 2015 at 12:53 AM


Visibility: 10 mi

Pressure: 29.96 "Hg

Humidity: 67%

Dew point: 43 °F

Location of Aliso ViejoLocation

Historic Weather in Aliso Viejo — Graph

°F

Aliso Viejo temperature yesterday

Maximum temperature yesterday: 69 °F (at 12:53 PM)
Minimum temperature yesterday: 50 °F (at 4:53 AM)
Average temperature yesterday: 59 °F

Past Weeks' High & Low Weather Summary

 TemperatureHumidityPressure
High75 °F (Feb 24, 2:53 PM)88% (Feb 26, 6:02 AM)30.23 "Hg (Feb 26, 6:02 AM)
Low50 °F (Mar 3, 4:53 AM)13% (Feb 24, 12:53 PM)29.76 "Hg (Feb 27, 3:53 PM)
Average62 °F62%29.98 "Hg
* Reported Feb 16 11:53 PM — Mar 3 11:53 PM, Aliso Viejo, Weather by CustomWeather, © 2015

Note: Actual official high and low records may vary slightly from our data, if they occured in-between our weather recording intervals... More about our weather records

Advertising

Aliso Viejo weather history for previous 24 hours

 ConditionsComfort  
Time TempWeatherWind HumidityBarometerVisibility
11:53 PM
Tue, Mar 3
55 °FClear.No wind67%29.96 "Hg10 mi
10:53 PM57 °FClear.No wind62%29.96 "Hg10 mi
9:53 PM58 °FClear.No wind62%29.95 "Hg10 mi
8:53 PM60 °FClear.3 mph56%29.94 "Hg10 mi
7:53 PM62 °FClear.3 mph52%29.92 "Hg10 mi
6:53 PM62 °FClear.No wind56%29.90 "Hg10 mi
5:53 PM62 °FClear.7 mph52%29.89 "Hg10 mi
4:53 PM64 °FPassing clouds.9 mph45%29.88 "Hg10 mi
3:53 PM65 °FPassing clouds.9 mph40%29.88 "Hg10 mi
2:53 PM66 °FPassing clouds.10 mph40%29.89 "Hg10 mi
1:53 PM66 °FScattered clouds.12 mph40%29.89 "Hg10 mi
12:53 PM69 °FScattered clouds.5 mph32%29.90 "Hg10 mi
11:53 AM68 °FScattered clouds.7 mph35%29.93 "Hg10 mi
10:53 AM65 °FScattered clouds.No wind40%29.95 "Hg10 mi
9:53 AM63 °FScattered clouds.No wind43%29.96 "Hg10 mi
8:53 AM61 °FScattered clouds.No wind48%29.97 "Hg10 mi
7:53 AM57 °FScattered clouds.No wind53%29.96 "Hg10 mi
6:53 AM50 °FScattered clouds.5 mph68%29.94 "Hg10 mi
5:53 AM50 °FPassing clouds.No wind68%29.93 "Hg10 mi
4:53 AM50 °FClear.No wind68%29.92 "Hg10 mi
3:53 AM51 °FClear.3 mph66%29.92 "Hg10 mi
2:53 AM51 °FClear.No wind66%29.94 "Hg10 mi
1:53 AM52 °FClear.No wind61%29.95 "Hg10 mi
Weather by CustomWeather, © 2015

See weather overviewHow to use our weather pages